Location: Boiro
(42.6475°N, 8.8834°W)
Time: 08:07:04
(UTC+01:00)

SR - Pass Details

Date: 07 December 2021
Orbit: 583 x 872 km, 66.7° (Epoch: 16 January)

Event Time Altitude Azimuth Distance (km) Brightness Sun altitude
Rises 22:56:33 0° 176° (S) 3,009 - -53.0°
Reaches altitude 10° 22:59:19 10° 161° (SSE) 2,050 - -53.5°
Maximum altitude 23:02:51 22° 111° (ESE) 1,364 - -54.1°
Drops below altitude 10° 23:06:15 10° 60° (ENE) 1,959 - -54.6°
Sets 23:08:49 0° 45° (NE) 2,840 - -55.1°
